SHLBYV-WX Weather Reports


time (UTC)temp
C
wind
direction
speed
KPH
gust
KPH
rain 1hr
cm
rain 24hr
cm
rain mn
cm
humidity
%
barometer
mb
20260503194550 13 229 35.4 0.0 0.00 0.00 0.00 55 982.3
20260503193113 13 232 37.0 0.0 0.00 0.00 0.00 55 982.3
20260503191552 13 237 35.4 0.0 0.00 0.00 0.00 55 982.3
20260503190123 13 235 37.0 0.0 0.00 0.00 0.00 55 982.3
20260503184551 13 237 35.4 0.0 0.00 0.00 0.00 47 982.9
20260503183600 14 234 37.0 0.0 0.00 0.00 0.00 47 982.9
20260503181550 14 236 35.4 0.0 0.00 0.00 0.00 51 983.1
20260503180126 14 233 37.0 0.0 0.00 0.00 0.00 51 983.1
20260503174549 14 233 35.4 0.0 0.00 0.00 0.00 47 983.7
20260503173110 14 238 37.0 0.0 0.00 0.00 0.00 47 983.0
20260503170119 13 236 35.4 0.0 0.00 0.00 0.00 47 983.0
20260503160128 12 232 30.6 0.0 0.00 0.00 0.00 52 982.5
20260503150124 11 242 24.1 0.0 0.00 0.00 0.00 56 983.5
20260503140130 10 228 29.0 0.0 0.00 0.00 0.00 59 983.5
20260503130123 6 228 19.3 0.0 0.00 0.00 0.00 69 983.9
20260503120131 5 220 19.3 0.0 0.00 0.00 0.00 71 984.1
20260503110123 3 221 17.7 0.0 0.00 0.00 0.00 70 983.2
20260503100124 2 222 16.1 0.0 0.00 0.00 0.00 70 983.2
20260503090120 2 215 14.5 0.0 0.00 0.00 0.00 71 983.3
20260503081550 2 200 14.5 0.0 0.00 0.00 0.00 69 983.8
20260503080116 2 198 12.9 0.0 0.00 0.00 0.00 70 983.3
20260503071549 2 183 11.3 0.0 0.00 0.00 0.00 69 984.0
20260503070119 2 176 11.3 0.0 0.00 0.00 0.00 69 984.0
20260503060133 2 189 11.3 0.0 0.00 0.00 0.00 68 984.9
20260503054550 2 180 9.7 0.0 0.00 0.00 0.00 66 985.4
20260503051549 2 188 9.7 0.0 0.00 0.00 0.00 69 985.6
20260503050119 2 189 8.0 0.0 0.00 0.00 0.00 69 985.6
20260503044549 2 190 8.0 0.0 0.00 0.00 0.00 67 985.8
20260503043109 2 195 8.0 0.0 0.00 0.00 0.00 67 985.3
20260503041550 2 197 8.0 0.0 0.00 0.00 0.00 67 985.3
20260503040121 2 194 8.0 0.0 0.00 0.00 0.00 67 985.3
20260503034549 2 198 6.4 0.0 0.00 0.00 0.00 64 986.5
20260503033110 2 205 8.0 0.0 0.00 0.00 0.00 63 986.6
20260503031549 3 214 9.7 0.0 0.00 0.00 0.00 63 986.6
20260503030120 3 219 9.7 0.0 0.00 0.00 0.00 63 986.6
20260503024549 3 217 8.0 0.0 0.00 0.00 0.00 58 987.4
20260503023109 3 220 8.0 0.0 0.00 0.00 0.00 62 987.1
20260503021549 3 223 8.0 0.0 0.00 0.00 0.00 62 987.1
20260503020119 3 228 8.0 0.0 0.00 0.00 0.00 62 987.1
20260503014549 4 236 8.0 0.0 0.00 0.00 0.00 55 986.6
20260503013107 4 239 8.0 0.0 0.00 0.00 0.00 55 986.6
20260503011549 5 245 8.0 0.0 0.00 0.00 0.00 55 986.6
20260503010118 5 255 8.0 0.0 0.00 0.00 0.00 55 986.6
20260503004549 5 262 6.4 0.0 0.00 0.00 0.00 49 987.3
20260503003103 6 261 6.4 0.0 0.00 0.00 0.00 49 987.5
20260503001549 6 273 4.8 0.0 0.00 0.00 0.00 49 987.5
20260503000121 6 285 6.4 0.0 0.00 0.00 0.00 49 987.5
20260502234550 7 297 9.7 0.0 0.00 0.00 0.00 39 987.5
20260502233102 7 296 9.7 0.0 0.00 0.00 0.00 40 987.5
20260502231550 7 294 11.3 0.0 0.00 0.00 0.00 40 987.5
20260502230117 7 293 12.9 0.0 0.00 0.00 0.00 40 987.5
20260502224550 7 288 14.5 0.0 0.00 0.00 0.00 39 987.8
20260502223108 8 289 16.1 0.0 0.00 0.00 0.00 37 988.6
20260502221551 8 286 17.7 0.0 0.00 0.00 0.00 37 988.6
20260502220117 8 287 17.7 0.0 0.00 0.00 0.00 37 988.6
20260502214550 8 287 17.7 0.0 0.00 0.00 0.00 42 988.7
20260502213109 8 285 17.7 0.0 0.00 0.00 0.00 42 988.3
20260502211550 8 281 17.7 0.0 0.00 0.00 0.00 42 988.3
20260502210119 8 280 17.7 0.0 0.00 0.00 0.00 42 988.3
20260502204550 8 278 17.7 0.0 0.00 0.00 0.00 42 988.8
20260502203108 8 276 17.7 0.0 0.00 0.00 0.00 43 989.2
20260502201550 8 278 17.7 0.0 0.00 0.00 0.00 43 989.2
20260502200116 8 277 19.3 0.0 0.00 0.00 0.00 43 989.2